Time,TemperatureF,DewpointF,PressureIn,WindDirection,WindDirectionDegrees,WindSpeedMPH,WindSpeedGustMPH,Humidity,HourlyPrecipIn,Conditions,Clouds,dailyrainin,SolarRadiationWatts/m^2,SoftwareType,DateUTC
2014-11-20 00:09:00,22.0,11.0,-100.00,West,278,3.0,15.0,63,0.00,,,0.00,0.000000,,2014-11-20 05:09:00,
2014-11-20 00:46:00,21.0,12.0,-100.00,West,275,6.0,14.0,69,0.00,,,0.00,0.000000,,2014-11-20 05:46:00,
2014-11-20 00:53:00,21.0,12.0,-100.00,West,275,6.0,14.0,69,0.00,,,0.00,0.000000,,2014-11-20 05:53:00,
2014-11-20 01:07:00,21.0,12.0,-100.00,West,275,6.0,14.0,69,0.00,,,0.00,0.000000,,2014-11-20 06:07:00,
2014-11-20 01:15:00,21.0,12.0,-100.00,West,275,6.0,14.0,69,0.00,,,0.00,0.000000,,2014-11-20 06:15:00,
2014-11-20 01:44:00,22.0,13.0,-100.00,WNW,283,5.0,12.0,69,0.00,,,0.00,0.000000,,2014-11-20 06:44:00,
2014-11-20 01:53:00,22.0,13.0,-100.00,WNW,283,5.0,12.0,69,0.00,,,0.00,0.000000,,2014-11-20 06:53:00,
2014-11-20 02:03:00,22.0,13.0,-100.00,WNW,283,5.0,12.0,69,0.00,,,0.00,0.000000,,2014-11-20 07:03:00,
2014-11-20 02:13:00,22.0,13.0,-100.00,WNW,283,5.0,12.0,69,0.00,,,0.00,0.000000,,2014-11-20 07:13:00,
2014-11-20 02:42:00,23.0,15.0,-100.00,WNW,289,4.0,13.0,71,0.00,,,0.00,0.000000,,2014-11-20 07:42:00,
2014-11-20 02:52:00,23.0,15.0,-100.00,WNW,289,4.0,13.0,71,0.00,,,0.00,0.000000,,2014-11-20 07:52:00,
2014-11-20 03:02:00,23.0,15.0,-100.00,WNW,289,4.0,13.0,71,0.00,,,0.00,0.000000,,2014-11-20 08:02:00,
2014-11-20 03:12:00,23.0,15.0,-100.00,WNW,289,4.0,13.0,71,0.00,,,0.00,0.000000,,2014-11-20 08:12:00,
2014-11-20 03:42:00,26.0,22.0,-100.00,North,354,5.0,17.0,86,0.00,,,0.00,0.000000,,2014-11-20 08:42:00,
2014-11-20 03:52:00,26.0,22.0,-100.00,North,354,5.0,17.0,86,0.00,,,0.00,0.000000,,2014-11-20 08:52:00,
2014-11-20 04:02:00,26.0,22.0,-100.00,North,354,5.0,17.0,86,0.00,,,0.00,0.000000,,2014-11-20 09:02:00,
2014-11-20 04:13:00,26.0,22.0,-100.00,North,354,5.0,17.0,86,0.00,,,0.00,0.000000,,2014-11-20 09:13:00,
2014-11-20 04:44:00,27.0,23.0,-100.00,North,0,5.0,18.0,84,0.00,,,0.00,0.000000,,2014-11-20 09:44:00,
2014-11-20 04:53:00,27.0,23.0,-100.00,North,0,5.0,18.0,84,0.00,,,0.00,0.000000,,2014-11-20 09:53:00,
2014-11-20 05:13:00,27.0,23.0,-100.00,North,0,5.0,18.0,84,0.00,,,0.00,0.000000,,2014-11-20 10:13:00,
2014-11-20 05:43:00,25.0,18.0,-100.00,North,359,14.0,24.0,75,0.00,,,0.00,0.000000,,2014-11-20 10:43:00,
2014-11-20 05:53:00,25.0,18.0,-100.00,North,359,14.0,24.0,75,0.00,,,0.00,0.000000,,2014-11-20 10:53:00,
2014-11-20 06:03:00,25.0,18.0,-100.00,North,359,14.0,24.0,75,0.00,,,0.00,0.000000,,2014-11-20 11:03:00,
2014-11-20 06:13:00,25.0,18.0,-100.00,North,359,14.0,24.0,75,0.00,,,0.00,0.000000,,2014-11-20 11:13:00,
2014-11-20 06:42:00,24.0,16.0,-100.00,North,359,9.0,26.0,70,0.00,,,0.00,0.000000,,2014-11-20 11:42:00,
2014-11-20 06:53:00,24.0,16.0,-100.00,North,359,9.0,26.0,70,0.00,,,0.00,0.000000,,2014-11-20 11:53:00,
2014-11-20 07:02:00,24.0,16.0,-100.00,North,359,9.0,26.0,70,0.00,,,0.00,0.000000,,2014-11-20 12:02:00,
2014-11-20 07:13:00,24.0,16.0,-100.00,North,359,9.0,26.0,70,0.00,,,0.00,0.000000,,2014-11-20 12:13:00,
2014-11-20 07:42:00,24.0,14.0,-100.00,North,353,7.0,22.0,66,0.00,,,0.00,0.000000,,2014-11-20 12:42:00,
2014-11-20 07:52:00,24.0,14.0,-100.00,North,353,7.0,22.0,66,0.00,,,0.00,0.000000,,2014-11-20 12:52:00,
2014-11-20 08:02:00,24.0,14.0,-100.00,North,353,7.0,22.0,66,0.00,,,0.00,0.000000,,2014-11-20 13:02:00,
2014-11-20 08:12:00,24.0,14.0,-100.00,North,353,7.0,22.0,66,0.00,,,0.00,0.000000,,2014-11-20 13:12:00,
2014-11-20 08:42:00,23.0,16.0,-100.00,North,357,8.0,20.0,73,0.00,,,0.00,15.000000,,2014-11-20 13:42:00,
2014-11-20 08:52:00,23.0,16.0,-100.00,North,357,8.0,20.0,73,0.00,,,0.00,15.000000,,2014-11-20 13:52:00,
2014-11-20 09:03:00,23.0,16.0,-100.00,North,357,8.0,20.0,73,0.00,,,0.00,15.000000,,2014-11-20 14:03:00,
2014-11-20 09:12:00,23.0,16.0,-100.00,North,357,8.0,20.0,73,0.00,,,0.00,15.000000,,2014-11-20 14:12:00,
2014-11-20 09:43:00,23.0,14.0,-100.00,North,358,10.0,23.0,69,0.00,,,0.00,61.000000,,2014-11-20 14:43:00,
2014-11-20 09:53:00,23.0,14.0,-100.00,North,358,10.0,23.0,69,0.00,,,0.00,61.000000,,2014-11-20 14:53:00,
2014-11-20 10:02:00,23.0,14.0,-100.00,North,358,10.0,23.0,69,0.00,,,0.00,61.000000,,2014-11-20 15:02:00,
2014-11-20 10:12:00,23.0,14.0,-100.00,North,358,10.0,23.0,69,0.00,,,0.00,61.000000,,2014-11-20 15:12:00,
2014-11-20 10:44:00,22.0,13.0,-100.00,North,356,11.0,26.0,68,0.00,,,0.00,125.000000,,2014-11-20 15:44:00,
2014-11-20 10:54:00,22.0,13.0,-100.00,North,356,11.0,26.0,68,0.00,,,0.00,125.000000,,2014-11-20 15:54:00,
2014-11-20 11:03:00,22.0,13.0,-100.00,North,356,11.0,26.0,68,0.00,,,0.00,125.000000,,2014-11-20 16:03:00,
2014-11-20 11:13:00,22.0,13.0,-100.00,North,356,11.0,26.0,68,0.00,,,0.00,125.000000,,2014-11-20 16:13:00,
2014-11-20 11:44:00,25.0,10.0,-100.00,North,356,10.0,22.0,52,0.00,,,0.00,348.000000,,2014-11-20 16:44:00,
2014-11-20 11:53:00,25.0,10.0,-100.00,North,356,10.0,22.0,52,0.00,,,0.00,348.000000,,2014-11-20 16:53:00,
2014-11-20 12:03:00,25.0,10.0,-100.00,North,356,10.0,22.0,52,0.00,,,0.00,348.000000,,2014-11-20 17:03:00,
2014-11-20 12:13:00,25.0,10.0,-100.00,North,356,10.0,22.0,52,0.00,,,0.00,348.000000,,2014-11-20 17:13:00,
2014-11-20 12:43:00,26.0,8.0,-100.00,North,0,9.0,22.0,45,0.01,,,0.01,408.000000,,2014-11-20 17:43:00,
2014-11-20 12:53:00,26.0,8.0,-100.00,North,0,9.0,22.0,45,0.01,,,0.01,408.000000,,2014-11-20 17:53:00,
2014-11-20 13:04:00,26.0,8.0,-100.00,North,0,9.0,22.0,45,0.01,,,0.01,408.000000,,2014-11-20 18:04:00,
2014-11-20 13:13:00,26.0,8.0,-100.00,North,0,9.0,22.0,45,0.01,,,0.01,408.000000,,2014-11-20 18:13:00,
2014-11-20 13:43:00,25.0,7.0,-100.00,North,349,9.0,21.0,45,0.02,,,0.03,391.000000,,2014-11-20 18:43:00,
2014-11-20 13:52:00,25.0,7.0,-100.00,North,349,9.0,21.0,45,0.02,,,0.03,391.000000,,2014-11-20 18:52:00,
2014-11-20 14:02:00,25.0,7.0,-100.00,North,349,9.0,21.0,45,0.02,,,0.03,391.000000,,2014-11-20 19:02:00,
2014-11-20 14:12:00,25.0,7.0,-100.00,North,349,9.0,21.0,45,0.02,,,0.03,391.000000,,2014-11-20 19:12:00,
2014-11-20 14:43:00,27.0,9.0,-100.00,NNW,344,4.0,19.0,45,0.01,,,0.04,319.000000,,2014-11-20 19:43:00,
2014-11-20 14:53:00,27.0,9.0,-100.00,NNW,344,4.0,19.0,45,0.01,,,0.04,319.000000,,2014-11-20 19:53:00,
2014-11-20 15:02:00,27.0,9.0,-100.00,NNW,344,4.0,19.0,45,0.01,,,0.04,319.000000,,2014-11-20 20:02:00,
2014-11-20 15:12:00,27.0,9.0,-100.00,NNW,344,4.0,19.0,45,0.01,,,0.04,319.000000,,2014-11-20 20:12:00,
2014-11-20 15:43:00,26.0,7.0,-100.00,NNW,347,7.0,21.0,44,0.00,,,0.04,219.000000,,2014-11-20 20:43:00,
2014-11-20 15:53:00,26.0,7.0,-100.00,NNW,347,7.0,21.0,44,0.00,,,0.04,219.000000,,2014-11-20 20:53:00,
2014-11-20 16:03:00,26.0,7.0,-100.00,NNW,347,7.0,21.0,44,0.00,,,0.04,219.000000,,2014-11-20 21:03:00,
2014-11-20 16:12:00,26.0,7.0,-100.00,NNW,347,7.0,21.0,44,0.00,,,0.04,219.000000,,2014-11-20 21:12:00,
2014-11-20 16:44:00,21.0,4.0,-100.00,North,356,10.0,22.0,47,0.00,,,0.04,38.000000,,2014-11-20 21:44:00,
2014-11-20 16:54:00,21.0,4.0,-100.00,North,356,10.0,22.0,47,0.00,,,0.04,38.000000,,2014-11-20 21:54:00,
2014-11-20 17:03:00,21.0,4.0,-100.00,North,356,10.0,22.0,47,0.00,,,0.04,38.000000,,2014-11-20 22:03:00,
2014-11-20 17:13:00,21.0,4.0,-100.00,North,356,10.0,22.0,47,0.00,,,0.04,38.000000,,2014-11-20 22:13:00,
2014-11-20 17:43:00,18.0,4.0,-100.00,North,358,5.0,23.0,53,0.00,,,0.04,7.000000,,2014-11-20 22:43:00,
2014-11-20 17:53:00,18.0,4.0,-100.00,North,358,5.0,23.0,53,0.00,,,0.04,7.000000,,2014-11-20 22:53:00,
2014-11-20 18:03:00,18.0,4.0,-100.00,North,358,5.0,23.0,53,0.00,,,0.04,7.000000,,2014-11-20 23:03:00,
2014-11-20 18:12:00,18.0,4.0,-100.00,North,358,5.0,23.0,53,0.00,,,0.04,7.000000,,2014-11-20 23:12:00,
2014-11-20 18:43:00,18.0,5.0,-100.00,North,359,10.0,20.0,57,0.00,,,0.04,0.000000,,2014-11-20 23:43:00,
2014-11-20 18:53:00,18.0,5.0,-100.00,North,359,10.0,20.0,57,0.00,,,0.04,0.000000,,2014-11-20 23:53:00,
2014-11-20 19:02:00,18.0,5.0,-100.00,North,359,10.0,20.0,57,0.00,,,0.04,0.000000,,2014-11-21 00:02:00,
2014-11-20 19:12:00,18.0,5.0,-100.00,North,359,10.0,20.0,57,0.00,,,0.04,0.000000,,2014-11-21 00:12:00,
2014-11-20 19:42:00,17.0,6.0,-100.00,North,357,10.0,22.0,62,0.00,,,0.04,0.000000,,2014-11-21 00:42:00,
2014-11-20 19:53:00,17.0,6.0,-100.00,North,357,10.0,22.0,62,0.00,,,0.04,0.000000,,2014-11-21 00:53:00,
2014-11-20 20:02:00,17.0,6.0,-100.00,North,357,10.0,22.0,62,0.00,,,0.04,0.000000,,2014-11-21 01:02:00,
2014-11-20 20:12:00,17.0,6.0,-100.00,North,357,10.0,22.0,62,0.00,,,0.04,0.000000,,2014-11-21 01:12:00,
2014-11-20 20:42:00,17.0,5.0,-100.00,North,354,10.0,23.0,58,0.00,,,0.04,0.000000,,2014-11-21 01:42:00,
2014-11-20 20:52:00,17.0,5.0,-100.00,North,354,10.0,23.0,58,0.00,,,0.04,0.000000,,2014-11-21 01:52:00,
2014-11-20 21:02:00,17.0,5.0,-100.00,North,354,10.0,23.0,58,0.00,,,0.04,0.000000,,2014-11-21 02:02:00,
2014-11-20 21:12:00,17.0,5.0,-100.00,North,354,10.0,23.0,58,0.00,,,0.04,0.000000,,2014-11-21 02:12:00,
2014-11-20 21:42:00,17.0,4.0,-100.00,North,359,9.0,23.0,56,0.00,,,0.04,0.000000,,2014-11-21 02:42:00,
2014-11-20 21:52:00,17.0,4.0,-100.00,North,359,9.0,23.0,56,0.00,,,0.04,0.000000,,2014-11-21 02:52:00,
2014-11-20 22:03:00,17.0,4.0,-100.00,North,359,9.0,23.0,56,0.00,,,0.04,0.000000,,2014-11-21 03:03:00,
2014-11-20 22:12:00,17.0,4.0,-100.00,North,359,9.0,23.0,56,0.00,,,0.04,0.000000,,2014-11-21 03:12:00,